Location: Krakow
(50.0830°N, 19.9170°E)
Time: 17:19:47
(UTC+01:00)

Vanguard 2 Rocket - Visible Passes

Search period start: 02 December 2023 00:00
Search period end: 12 December 2023 00:00
Orbit: 553 x 3312 km, 32.9° (Epoch: 01 December)

Date Brightness Start Highest point End Pass type
(mag) Time Alt. Az. Time Alt. Az. Time Alt. Az.
02 Dec 10.1 17:32:01 10° WSW 17:50:05 43° S 18:03:38 12° SE visible
02 Dec 9.9 19:49:40 10° W 20:04:24 30° SSW 20:09:17 25° S visible
03 Dec 10.3 16:28:36 10° WSW 16:46:45 45° S 17:02:18 10° ESE visible
03 Dec 10.0 18:45:06 10° W 19:01:55 37° SSW 19:11:25 19° SSE visible
03 Dec 10.3 21:05:10 10° W 21:14:48 18° SW 21:17:04 17° SW visible
04 Dec 10.2 17:41:03 10° WSW 17:58:57 42° SSW 18:13:19 10° SE visible
04 Dec 10.1 19:59:18 10° W 20:12:57 26° SW 20:19:17 19° S visible
05 Dec 10.3 16:37:32 10° WSW 16:55:37 45° S 17:11:32 10° ESE visible
05 Dec 10.2 18:54:26 10° W 19:10:34 33° SSW 19:21:35 14° SSE visible
05 Dec 10.5 21:16:48 10° WSW 21:23:04 13° SW 21:27:15 11° SW visible
06 Dec 10.3 17:50:15 10° W 18:07:42 39° SSW 18:22:12 10° SE visible
06 Dec 10.4 20:09:24 10° W 20:21:19 21° SW 20:29:40 13° S visible
07 Dec 10.4 16:46:40 10° WSW 17:04:25 43° SSW 17:20:31 10° SE visible
07 Dec 10.5 19:04:02 10° W 19:19:04 28° SW 19:31:23 10° SSE visible
08 Dec 10.5 15:43:40 10° WSW 16:00:55 45° S 16:18:15 10° ESE visible
08 Dec 10.5 17:59:38 10° W 18:16:19 35° SSW 18:30:42 10° SSE visible
08 Dec 10.7 20:20:30 10° WSW 20:29:32 16° SW 20:37:26 10° SSW visible
09 Dec 10.6 16:55:57 10° WSW 17:13:10 40° SSW 17:29:14 10° SE visible
09 Dec 10.7 19:14:06 10° W 19:27:26 23° SW 19:38:55 10° S visible
10 Dec 10.6 15:52:53 10° WSW 16:09:44 44° S 16:27:06 10° SE visible
10 Dec 10.7 18:09:18 10° W 18:24:50 30° SSW 18:38:45 10° SSE visible
10 Dec 11.0 20:35:44 10° WSW 20:37:39 10° SW 20:39:30 10° SW visible
11 Dec 10.7 17:05:26 10° W 17:21:48 36° SSW 17:37:37 10° SSE visible
11 Dec 10.9 19:25:00 10° W 19:35:40 17° SW 19:45:21 10° SSW visible
